This demonstration page uses our WeatherBlox Daily Observations layout. Learn more.

Left ArrowRight Arrow

44.8408, -93.29828

Hourly Observations for August 8, 2017

Temp ( °F °C ) Dew Point ( °F °C ) Humidity (%) Winds ( mph kmh ) Pressure ( in mb ) Visibility ( mi km ) Precip ( " mm )
12:53 am 00:53 Clear 68 20 56 13.3 65 65 WSW 3 6 30.15 1021 10 16 0.00 0.00
1:53 am 01:53 Clear 66 18.9 56 13.3 70 70 SW 3 6 30.16 1021 10 16 0.00 0.00
2:53 am 02:53 Clear 66 18.9 56 13.3 70 70 Calm 30.15 1021 10 16 0.00 0.00
3:53 am 03:53 Clear 64 17.8 56 13.3 75 75 Calm 30.15 1021 10 16 0.00 0.00
4:53 am 04:53 Clear 63 17.2 56 13.3 78 78 Calm 30.15 1021 10 16 0.00 0.00
5:53 am 05:53 Clear 62 16.7 55 12.8 78 78 SSW 3 6 30.16 1021 10 16 0.00 0.00
6:53 am 06:53 Sunny 62 16.7 55 12.8 78 78 SW 3 6 30.17 1022 10 16 0.00 0.00
7:53 am 07:53 Sunny 65 18.3 56 13.3 73 73 Calm 30.18 1022 10 16 0.00 0.00
8:53 am 08:53 Sunny 70 21.1 56 13.3 61 61 W 6 9 30.18 1022 10 16 0.00 0.00
9:53 am 09:53 Mostly Sunny 74 23.3 57 13.9 56 56 WSW 6 9 30.18 1022 10 16 0.00 0.00
10:53 am 10:53 Mostly Sunny 76 24.4 58 14.4 54 54 SW 9 15 30.17 1022 10 16 0.00 0.00
11:53 am 11:53 Partly Cloudy 79 26.1 58 14.4 49 49 WSW 9 15 30.16 1021 10 16 0.00 0.00
12:53 pm 12:53 Mostly Cloudy 81 27.2 54 12.2 39 39 WSW 12 19 30.15 1021 10 16 0.00 0.00
1:53 pm 13:53 Mostly Cloudy 80 26.7 53 11.7 39 39 W 10 17 30.14 1021 10 16 0.00 0.00
2:53 pm 14:53 Mostly Cloudy 83 28.3 54 12.2 37 37 WNW 13 20 30.13 1020 10 16 0.00 0.00
3:53 pm 15:53 Mostly Cloudy 83 28.3 53 11.7 36 36 W 8 13 30.11 1020 10 16 0.00 0.00
4:53 pm 16:53 Partly Cloudy 82 27.8 53 11.7 37 37 SW 14 22 30.09 1019 10 16 0.00 0.00
5:53 pm 17:53 Mostly Cloudy 81 27.2 52 11.1 37 37 W 10 17 30.08 1019 10 16 0.00 0.00
6:53 pm 18:53 Mostly Cloudy 81 27.2 53 11.7 38 38 WSW 6 9 30.08 1019 10 16 0.00 0.00
7:53 pm 19:53 Mostly Cloudy 79 26.1 53 11.7 41 41 WSW 8 13 30.08 1019 10 16 0.00 0.00
8:53 pm 20:53 Mostly Cloudy 78 25.6 54 12.2 43 43 WSW 5 7 30.07 1018 10 16 0.00 0.00
9:53 pm 21:53 Cloudy 75 23.9 56 13.3 52 52 SSW 8 13 30.09 1019 10 16 0.00 0.00
10:53 pm 22:53 Cloudy 73 22.8 56 13.3 55 55 SSW 6 9 30.09 1019 10 16 0.00 0.00
11:53 pm 23:53 Cloudy 72 22.2 56 13.3 57 57 SSW 3 6 30.09 1019 10 16 0.00 0.00

Powered by AerisWeather